Wind_Speed
6 10 14 13 14 16 18 19 23 24 24 25 27 28 26 23 23 23 23 27 22 25 14 11 10 15 20 23 22 31 37 40 37 35 36 37 39 40 41 41 39 38 31 31
7 18 15 15 15 19 24 24 23 23 25 28 24 24 24 19 22 25 21 21 22 18 14 15 12 23 21 23 30 34 36 36 31 31 31 34 37 38 40 39 37 34 31 34
16 16 15 21 21 23 27 25 21 20 26 26 28 23 23 24 27 18 15 17 19 17 17 15 12 21 27 31 30 31 31 31 30 30 31 34 34 34 34 33 33 27 30 33
10 17 23 27 28 29 29 29 24 21 23 25 27 26 26 26 24 20 21 21 16 19 19 16 15 21 28 29 30 30 30 30 29 28 30 30 30 31 31 32 25 25 28 30
14 21 26 31 33 34 34 32 26 22 23 27 28 28 26 25 19 20 15 18 21 20 20 24 23 26 28 28 30 30 30 29 27 27 29 28 30 32 29 22 22 24 27 31
21 24 27 33 34 34 33 32 26 22 22 25 26 26 25 24 22 18 20 21 21 21 22 26 25 28 28 29 29 29 29 29 28 28 29 28 31 28 20 18 20 22 25 28
22 25 28 33 38 36 32 26 25 21 23 25 26 25 23 22 22 23 25 26 23 26 27 29 29 29 29 29 28 28 30 29 28 28 28 29 28 21 17 19 20 21 24 24
27 31 37 37 34 30 24 21 21 21 22 25 24 25 23 22 23 24 27 22 26 25 26 28 29 29 30 31 31 29 29 28 28 28 27 28 26 19 18 18 18 20 21 21
32 36 37 36 32 25 21 21 19 22 23 24 23 22 23 22 23 25 26 26 29 28 27 26 27 28 30 32 32 31 29 28 27 27 27 26 24 18 17 17 17 18 19 19
38 41 38 33 29 23 21 22 22 24 25 25 25 23 24 25 26 28 29 31 32 32 31 29 25 28 31 32 34 33 30 29 27 26 26 25 23 17 16 17 17 16 17 17
33 29 29 26 22 21 22 22 22 22 22 25 28 26 27 27 28 29 31 32 35 34 30 26 28 31 35 37 36 32 30 28 27 26 25 24 22 16 16 16 16 15 15 14
27 27 26 22 20 19 19 18 21 23 24 25 26 27 28 30 32 33 35 33 36 33 25 29 30 27 37 36 36 32 32 28 26 26 25 23 22 15 15 14 14 14 13 12
24 21 19 18 18 18 19 20 21 22 23 25 27 30 33 37 36 36 34 32 32 26 34 38 28 45 46 34 29 31 29 29 27 24 24 23 21 17 13 14 13 12 12 10
22 19 17 17 17 19 20 23 24 24 23 26 30 32 35 35 38 37 35 34 32 39 44 48 49 57 49 44 42 43 38 24 25 25 23 21 20 18 13 13 11 11 10 7
21 19 18 19 20 20 22 24 24 23 25 32 36 36 35 38 39 40 37 39 39 37 37 40 44 47 47 45 40 40 34 38 30 25 24 21 20 18 14 12 11 10 9 5
20 20 22 23 23 21 21 25 25 27 30 35 35 36 39 40 42 41 34 32 36 39 39 41 45 44 41 40 38 37 30 23 30 27 24 20 19 17 15 11 11 9 9 6
19 20 21 25 25 25 25 25 27 29 33 35 37 40 42 42 39 30 36 37 37 38 39 40 42 39 39 40 35 29 36 22 17 18 19 19 18 15 15 13 10 10 9 7
24 23 23 22 23 23 24 26 29 31 33 35 38 40 41 36 30 35 33 35 35 37 37 39 40 38 38 36 29 25 28 19 17 12 15 17 17 16 14 12 11 11 9 9
20 19 19 19 21 24 26 30 32 34 35 38 40 41 37 30 33 30 34 34 34 35 36 38 39 38 36 34 27 21 21 24 25 12 15 12 16 17 14 13 12 12 11 11
18 17 19 21 23 26 29 32 34 37 38 40 40 37 28 30 29 34 36 36 36 38 38 38 38 36 35 32 29 21 19 21 25 25 15 17 16 17 16 15 14 14 14 15
16 17 18 20 22 26 29 31 32 36 38 38 37 29 27 29 33 33 34 35 36 38 38 38 37 36 33 32 29 25 19 18 19 21 21 16 14 15 17 17 16 14 17 17
18 18 20 21 25 27 28 31 34 37 38 37 30 26 28 30 33 36 38 39 40 40 38 37 36 35 34 30 30 27 23 18 18 19 23 24 15 16 25 19 19 17 18 20
17 20 21 24 27 28 29 32 35 36 36 36 29 24 28 33 33 36 37 38 39 40 40 38 37 37 35 32 29 28 26 23 19 19 21 22 23 18 22 20 20 21 20 22
19 19 22 26 26 26 28 32 35 36 37 34 27 26 30 33 35 37 39 40 40 40 40 40 37 36 35 34 30 27 25 24 23 21 20 23 24 27 22 26 23 23 23 21
19 21 24 27 27 27 30 33 35 37 38 31 26 26 30 33 35 38 39 41 42 41 40 39 38 36 37 36 34 31 28 26 25 24 22 21 25 30 32 25 28 26 25 25
19 23 26 26 26 28 31 34 36 37 36 29 25 26 31 32 35 38 41 43 44 44 42 41 39 38 38 37 35 33 31 29 27 27 26 24 23 29 34 25 26 27 28 27
Wind_Direction
334 332 330 360 346 346 339 332 334 339 341 330 327 332 329 335 341 342 329 330 332 348 354 348 271 289 289 291 316 320 311 306 307 311 309 314 315 312 311 310 309 309 303 304
321 323 349 350 341 342 341 334 337 337 330 330 332 341 344 340 339 342 339 330 335 332 335 324 271 272 271 297 304 306 304 305 305 306 312 313 309 308 308 307 308 306 305 309
314 325 330 342 343 337 341 342 339 336 327 331 331 333 337 339 331 331 332 328 329 325 310 317 306 279 281 308 305 307 306 307 312 312 310 310 304 305 306 304 304 300 305 308
307 323 343 339 335 335 339 336 325 322 323 325 332 331 331 328 326 320 313 313 313 307 305 312 307 287 295 301 310 307 309 313 313 307 310 308 306 309 308 307 303 307 312 315
332 342 336 334 326 328 332 332 321 325 324 328 332 332 336 335 327 319 312 316 316 309 302 301 300 303 306 307 307 310 312 314 312 314 316 314 316 312 308 306 307 313 319 322
345 338 334 329 325 323 323 319 315 320 321 328 331 334 335 333 327 310 308 311 314 302 298 308 303 304 308 308 310 309 316 319 317 323 322 320 319 315 312 309 313 321 325 326
334 329 325 320 319 318 315 314 319 320 319 324 332 332 332 325 316 308 312 310 310 309 307 310 307 307 311 312 312 316 316 319 320 325 323 322 326 323 317 317 322 327 327 330
318 313 310 309 313 308 309 315 314 312 317 323 328 329 329 322 315 311 310 305 309 309 306 307 310 314 314 313 317 318 313 319 323 322 321 328 330 322 318 319 324 327 328 333
304 308 311 310 312 309 312 314 315 314 322 324 328 330 326 321 317 317 321 314 311 310 310 308 311 311 312 315 316 316 316 318 321 319 323 330 328 317 314 319 322 327 330 337
305 305 308 311 310 307 308 314 322 321 320 324 328 327 324 324 322 323 321 314 310 309 307 305 308 311 313 316 313 311 315 314 315 319 322 327 322 313 311 320 320 327 333 341
301 303 310 312 311 307 311 315 312 310 315 319 321 323 321 318 316 318 315 313 312 313 309 308 320 318 313 311 309 307 309 310 312 316 318 320 317 309 310 321 319 324 329 342
307 313 312 313 314 306 302 303 305 313 314 316 319 320 321 321 321 317 318 321 316 311 309 300 305 329 328 318 306 304 305 305 307 310 312 315 315 308 308 315 315 319 323 340
313 306 309 321 319 318 316 315 314 311 312 318 322 321 319 320 321 322 322 324 326 323 325 313 299 321 323 310 314 312 304 303 302 304 307 312 311 307 301 305 311 312 317 337
314 313 320 323 324 319 316 318 321 318 321 326 326 325 322 321 323 328 323 320 322 307 309 314 304 309 310 304 293 296 296 295 300 301 301 305 305 305 292 294 305 304 305 325
312 313 318 318 317 319 322 320 316 306 315 328 328 324 325 325 328 326 325 316 316 314 314 312 310 308 306 303 290 286 294 289 297 297 293 299 300 300 288 285 296 291 289 301
307 303 311 314 315 313 317 317 320 312 317 323 324 326 329 329 327 328 329 329 322 320 321 322 323 321 317 313 308 284 273 294 277 286 282 291 293 294 293 277 286 282 271 269
317 313 314 319 318 319 323 328 332 329 328 327 329 329 330 330 331 336 332 331 328 327 327 328 332 327 323 319 309 297 278 295 285 283 271 279 284 288 288 278 273 276 258 245
325 320 316 315 317 325 329 331 331 329 331 329 330 330 329 330 333 332 333 330 331 330 334 334 339 333 329 328 317 300 287 287 292 281 290 273 282 280 280 280 260 264 246 237
322 324 321 320 324 330 330 333 331 331 335 332 330 330 330 334 331 333 335 333 332 333 335 337 341 341 337 338 328 310 291 282 271 292 247 283 270 279 274 268 259 254 243 230
324 322 321 324 330 332 332 333 332 334 334 331 330 330 329 330 334 336 333 332 331 332 332 335 341 343 342 340 340 325 307 289 280 290 274 282 281 275 266 265 261 245 241 229
317 317 322 328 331 334 331 330 331 329 330 330 329 325 323 334 336 334 332 328 327 328 329 330 332 337 342 342 339 337 320 299 284 272 265 273 274 293 271 265 255 244 239 231
316 322 325 328 331 332 330 331 331 329 329 330 323 324 337 333 336 339 337 335 333 331 330 329 330 328 333 338 337 332 328 311 288 272 265 265 259 272 281 258 253 245 240 236
317 321 324 330 331 332 330 330 328 326 330 333 326 329 334 338 336 335 335 333 330 329 327 327 326 326 326 329 331 328 326 318 308 280 266 261 247 262 261 258 252 249 240 236
316 319 324 328 329 330 328 327 327 330 335 335 327 323 327 334 335 334 334 333 331 331 328 328 326 323 321 321 320 319 315 314 308 302 280 263 251 242 239 257 253 249 244 238
317 322 326 328 329 328 328 328 331 335 338 336 331 329 333 335 334 336 333 332 333 332 331 330 328 323 319 317 313 310 309 303 300 297 290 271 253 246 244 250 246 251 243 239
318 322 325 326 327 329 331 331 333 338 340 336 333 333 339 336 337 335 335 336 336 334 332 330 330 328 327 323 318 311 305 300 294 288 284 276 265 248 244 230 243 248 249 243
Height
5895 5893 5891 5890 5889 5886 5884 5881 5878 5873 5870 5868 5865 5861 5856 5853 5847 5844 5841 5837 5836 5833 5830 5826 5818 5817 5816 5814 5810 5805 5802 5799 5793 5788 5783 5776 5771 5765 5759 5753 5749 5745 5741 5737
5894 5893 5892 5890 5888 5884 5880 5877 5874 5870 5867 5865 5861 5858 5853 5849 5846 5840 5836 5835 5833 5830 5827 5824 5822 5815 5810 5808 5806 5802 5799 5794 5789 5783 5777 5772 5766 5759 5753 5747 5742 5737 5733 5728
5893 5893 5891 5888 5885 5882 5877 5873 5870 5867 5863 5860 5857 5854 5851 5847 5843 5840 5837 5834 5831 5827 5824 5821 5817 5815 5808 5805 5803 5799 5794 5788 5781 5776 5772 5767 5761 5754 5747 5742 5737 5733 5729 5724
5892 5890 5887 5884 5881 5879 5874 5870 5866 5864 5861 5858 5855 5851 5847 5843 5841 5838 5834 5831 5827 5825 5821 5818 5815 5810 5807 5803 5798 5794 5788 5781 5776 5772 5767 5760 5753 5746 5740 5735 5731 5728 5723 5717
5890 5887 5884 5882 5879 5875 5871 5868 5864 5861 5858 5855 5851 5848 5845 5841 5837 5834 5831 5828 5825 5821 5818 5814 5811 5807 5802 5798 5793 5788 5782 5777 5771 5765 5759 5752 5746 5739 5734 5730 5727 5723 5717 5710
5887 5885 5883 5881 5876 5872 5869 5865 5861 5858 5855 5852 5849 5846 5841 5838 5835 5831 5828 5824 5822 5818 5815 5810 5806 5802 5797 5792 5788 5783 5777 5770 5765 5758 5752 5746 5740 5733 5729 5725 5722 5717 5712 5705
5885 5884 5881 5880 5874 5869 5865 5861 5857 5855 5851 5850 5846 5842 5839 5835 5831 5828 5824 5820 5817 5814 5809 5805 5801 5797 5792 5786 5782 5777 5771 5764 5758 5752 5747 5741 5734 5728 5724 5721 5717 5713 5708 5702
5882 5880 5879 5875 5873 5867 5862 5859 5855 5851 5849 5846 5843 5839 5835 5830 5826 5823 5819 5816 5813 5809 5805 5800 5795 5790 5785 5781 5776 5770 5764 5757 5751 5747 5741 5735 5728 5724 5721 5717 5714 5710 5706 5700
5880 5878 5873 5868 5865 5862 5858 5855 5852 5848 5845 5841 5838 5834 5830 5826 5821 5817 5814 5811 5807 5802 5797 5792 5787 5783 5777 5772 5767 5762 5756 5750 5745 5741 5735 5729 5724 5720 5718 5715 5712 5708 5703 5698
5876 5870 5866 5862 5858 5856 5854 5851 5847 5844 5840 5836 5833 5831 5826 5821 5817 5813 5810 5806 5801 5796 5790 5785 5780 5775 5769 5762 5758 5754 5749 5744 5740 5734 5729 5724 5720 5717 5714 5711 5708 5704 5700 5696
5871 5868 5864 5859 5856 5853 5850 5847 5845 5842 5838 5834 5830 5828 5822 5818 5814 5810 5805 5800 5793 5787 5782 5777 5772 5767 5762 5757 5751 5746 5742 5737 5733 5728 5724 5720 5718 5713 5711 5708 5705 5702 5698 5695
5866 5861 5858 5856 5853 5851 5848 5845 5842 5838 5835 5831 5827 5823 5818 5813 5808 5803 5797 5791 5784 5778 5773 5768 5764 5760 5756 5750 5744 5738 5735 5731 5726 5723 5719 5716 5713 5709 5706 5704 5702 5699 5697 5693
5863 5859 5855 5852 5850 5846 5843 5841 5838 5835 5831 5827 5823 5819 5813 5807 5801 5795 5790 5783 5777 5772 5767 5761 5754 5750 5746 5741 5736 5732 5727 5724 5721 5717 5714 5710 5707 5705 5702 5701 5699 5697 5695 5692
5858 5855 5852 5849 5847 5844 5841 5837 5833 5829 5826 5822 5818 5813 5807 5801 5795 5789 5782 5776 5772 5767 5759 5754 5748 5741 5735 5731 5726 5722 5719 5717 5713 5711 5708 5705 5703 5701 5698 5697 5695 5694 5692 5690
5853 5850 5848 5845 5843 5840 5836 5833 5830 5826 5823 5819 5813 5807 5802 5794 5788 5781 5776 5770 5764 5758 5752 5746 5739 5732 5724 5717 5713 5710 5710 5708 5704 5702 5702 5699 5698 5696 5695 5693 5692 5691 5690 5689
5849 5847 5845 5842 5839 5837 5834 5829 5826 5822 5818 5813 5807 5800 5792 5786 5781 5774 5768 5763 5757 5751 5744 5737 5728 5720 5712 5706 5701 5697 5696 5695 5694 5694 5693 5693 5692 5691 5690 5689 5688 5688 5688 5687
5846 5844 5841 5838 5835 5831 5829 5824 5820 5816 5811 5805 5799 5793 5786 5780 5774 5768 5763 5756 5750 5744 5738 5730 5720 5711 5703 5696 5690 5686 5684 5685 5686 5686 5686 5686 5686 5685 5685 5685 5684 5684 5685 5685
5842 5840 5838 5835 5832 5829 5825 5820 5817 5812 5807 5800 5793 5787 5781 5775 5769 5764 5758 5752 5745 5738 5731 5723 5715 5705 5697 5688 5682 5678 5676 5677 5677 5679 5680 5680 5680 5680 5680 5680 5680 5681 5681 5683
5839 5836 5834 5832 5828 5825 5820 5816 5811 5806 5801 5793 5787 5781 5775 5770 5765 5759 5753 5746 5739 5732 5725 5717 5709 5700 5691 5683 5677 5673 5671 5672 5670 5670 5672 5673 5673 5674 5674 5675 5675 5677 5678 5679
5837 5834 5832 5829 5825 5820 5816 5811 5805 5799 5795 5788 5781 5775 5770 5766 5761 5754 5747 5740 5734 5727 5719 5712 5704 5696 5688 5681 5674 5670 5667 5665 5665 5664 5666 5667 5668 5668 5668 5670 5671 5672 5675 5676
5835 5832 5830 5826 5822 5818 5812 5807 5802 5797 5793 5783 5776 5771 5768 5762 5756 5750 5743 5736 5729 5722 5714 5706 5698 5692 5686 5679 5672 5667 5664 5661 5659 5660 5661 5662 5663 5664 5663 5665 5666 5667 5669 5672
5832 5830 5826 5823 5819 5815 5809 5803 5798 5792 5785 5778 5773 5767 5762 5757 5751 5744 5737 5730 5722 5715 5708 5700 5693 5687 5681 5676 5670 5664 5660 5657 5655 5654 5654 5654 5657 5658 5658 5659 5660 5662 5664 5667
5830 5827 5824 5820 5815 5810 5805 5799 5793 5787 5781 5774 5767 5763 5758 5752 5747 5741 5733 5726 5718 5710 5702 5695 5688 5681 5676 5671 5666 5660 5656 5652 5649 5648 5647 5647 5648 5647 5650 5652 5653 5656 5658 5660
5826 5824 5820 5816 5812 5807 5801 5796 5789 5783 5776 5769 5763 5759 5754 5749 5742 5735 5728 5720 5712 5704 5695 5688 5681 5675 5669 5663 5659 5654 5650 5646 5643 5641 5639 5639 5639 5641 5642 5645 5646 5648 5650 5653
5823 5820 5816 5812 5807 5802 5797 5791 5785 5778 5771 5764 5758 5754 5750 5744 5737 5731 5723 5714 5706 5697 5689 5681 5674 5667 5661 5655 5650 5646 5642 5639 5635 5632 5631 5629 5629 5631 5633 5634 5637 5640 5642 5645
5819 5816 5812 5808 5803 5797 5792 5786 5779 5773 5766 5759 5755 5750 5746 5740 5734 5726 5717 5708 5699 5690 5682 5674 5666 5659 5652 5646 5640 5636 5632 5628 5626 5623 5621 5620 5620 5620 5622 5625 5628 5631 5634 5637